Location: Unspecified
(50.7693°N, 0.0000°E)
Time: 10:29:49
(UTC+00:00)

SR - Pass Details

Date: 03 July 2019
Orbit: 581 x 875 km, 66.7° (Epoch: 15 July)

Event Time Altitude Azimuth Distance (km) Brightness Sun altitude
Rises 04:17:03 0° 288° (WNW) 2,848 ? 2.3°
Reaches altitude 10° 04:20:28 10° 317° (NW) 1,988 ? 2.7°
Maximum altitude 04:22:35 13° 346° (NNW) 1,822 ? 3.0°
Drops below altitude 10° 04:24:46 10° 14° (NNE) 2,059 ? 3.3°
Sets 04:28:25 0° 42° (NE) 3,043 ? 3.8°
